Tracking 19817 objects as of 18-Aug-2019
HD Live streaming from Space Station
objects crossing your sky now

SL-16 DEB

Track SL-16 DEB now!
10-day predictions


NORAD ID: 22615
Int'l Code: 1993-016Z
Perigee: 835.7 km
Apogee: 1,035.3 km
Inclination: 71.0 °
Period: 103.6 minutes
Semi major axis: 7306 km
RCS: 0.015 m2 (small)
Launch date: March 26, 1993
Source: Commonwealth of Independent States (former USSR) (CIS)
Launch site: TYURATAM MISSILE AND SPACE COMPLEX (TTMTR)

Note: This is SATELLITE DEBRIS
aabbcc
Your satellite tracking list
Your tracking list is empty




NASA's NSSDC Master Catalog

Two Line Element Set (TLE):
1 22615U 93016Z   19228.25663257  .00000239  00000-0  21311-3 0  9998
2 22615  71.0028  74.6982 0136605 174.2287 305.4061 13.90077432334391
Source of the keplerian elements: AFSPC